Location: Fontevrault
(47.1823°N, 0.0493°E)
Time: 04:24:06
(UTC+00:00)

Cosmos 1459 Rocket - Pass Details

Date: 21 October 2021
Orbit: 936 x 1000 km, 83.0° (Epoch: 01 December)

Event Time Altitude Azimuth Distance (km) Brightness Sun altitude
Exits shadow 19:02:12 23° 46° (NE) 1,906 5.2 -21.2°
Drops below altitude 10° 19:04:58 10° 26° (NNE) 2,693 6.1 -21.7°
Sets 19:07:41 0° 17° (NNE) 3,634 6.9 -22.2°
